Location: Unspecified
(48.7670°N, 0.0000°E)
Time: 11:25:17
(UTC+00:00)

Vanguard 2 Rocket - Pass Details

Date: 21 June 2019
Orbit: 554 x 3326 km, 32.9° (Epoch: 22 July)

Event Time Altitude Azimuth Distance (km) Brightness Sun altitude
Rises 02:50:27 0° 268° (W) 5,768 10.6 -8.6°
Reaches altitude 10° 02:54:22 10° 259° (WSW) 5,116 10.3 -8.2°
Maximum altitude 03:07:36 33° 204° (SSW) 4,359 9.9 -6.7°
Drops below altitude 10° 03:23:55 10° 150° (SSE) 6,267 11.0 -4.9°
Sets 03:29:30 0° 142° (SE) 7,189 11.4 -4.2°
